SL-16 R/B - Orbit

View from above orbital plane
View from above orbital plane
View from above satellite
View from above satellite

Ground track
Ground track

The orbit data is extracted from the following two-line orbital elements,

1 28353U 04021B   13137.06851223 -.00000215  00000-0 -88033-4 0  4889
2 28353 071.0021 327.2962 0007459 296.4073 210.2524 14.14028102461225
Epoch (UTC): 17 May 2013 01:38:39
Eccentricity: 0.0007459
inclination: 71.0021°
perigee height: 840 km
apogee height: 851 km
right ascension of ascending node: 327.2962°
argument of perigee: 296.4073°
revolutions per day: 14.14028102
mean anomaly at epoch: 210.2524°
orbit number at epoch: 46122

The dashed part of the orbit path shows where the satellite is in the earth's shadow,  

Developed and maintained by Chris Peat, Heavens-Above GmbH. Please read the updated FAQ before sending e-mail. Imprint. DLR